When you browse on this site, cookies collect data to enhance your experience and personalize the content and advertising you see.
Visit our Privacy Policy to learn more. By continuing to use the site, you agree to this use of cookies and data.
  • Em Portugal
  • Lista de países
  • Para 7 dias
  • Temperatura da água
  • Mapas de satélite
  • Mapa do tempo
  • Widgets de tempo
  • user-avatar
    Iniciar Sessão

    Previsão horária em Novosledovo

    Hoje, 19 Abril, Sexta-feira

    Tempo Temperatura Precipitação Vento Pressão Humidade
    00:00 +3°C° 0 mm 2 m/s 751 mmHg 77%
    01:00 +4°C° 0 mm 1 m/s 751 mmHg 81%
    02:00 +3°C° 0 mm 1 m/s 752 mmHg 86%
    03:00 +3°C° 0 mm 1 m/s 752 mmHg 88%
    04:00 +2°C° 0 mm 1 m/s 752 mmHg 90%
    05:00 +2°C° 0 mm 1 m/s 752 mmHg 91%
    06:00 +4°C° 0 mm 1 m/s 752 mmHg 81%
    07:00 +6°C° 0 mm 1 m/s 752 mmHg 71%
    08:00 +8°C° 0 mm 1 m/s 753 mmHg 61%
    09:00 +10°C° 0 mm 1 m/s 752 mmHg 54%
    10:00 +11°C° 0 mm 1 m/s 752 mmHg 47%
    11:00 +13°C° 0 mm 1 m/s 752 mmHg 41%
    12:00 +13°C° 0 mm 1 m/s 752 mmHg 38%
    13:00 +14°C° 0 mm 1 m/s 751 mmHg 36%
    14:00 +14°C° 0 mm 1 m/s 751 mmHg 34%
    15:00 +14°C° 0 mm 1 m/s 750 mmHg 34%
    16:00 +14°C° 0 mm 1 m/s 750 mmHg 35%
    17:00 +13°C° 0 mm 2 m/s 749 mmHg 36%
    18:00 +12°C° 0 mm 1 m/s 749 mmHg 41%
    19:00 +11°C° 0 mm 1 m/s 749 mmHg 46%
    20:00 +9°C° 0 mm 1 m/s 749 mmHg 51%
    21:00 +9°C° 0 mm 1 m/s 749 mmHg 52%
    22:00 +9°C° 0 mm 1 m/s 749 mmHg 54%
    23:00 +7°C° 0 mm 2 m/s 748 mmHg 55%

    Amanhã, 20 Abril, Sábado

    Tempo Temperatura Precipitação Vento Pressão Humidade
    00:00 +7°C° 0.1 mm 2 m/s 748 mmHg 63%
    01:00 +6°C° 0.1 mm 2 m/s 748 mmHg 70%
    02:00 +6°C° 0.1 mm 2 m/s 748 mmHg 78%
    03:00 +6°C° 0.2 mm 2 m/s 747 mmHg 82%
    04:00 +5°C° 0.2 mm 2 m/s 747 mmHg 86%
    05:00 +5°C° 0.2 mm 2 m/s 747 mmHg 90%
    06:00 +5°C° 0.3 mm 2 m/s 747 mmHg 89%
    07:00 +6°C° 0.3 mm 2 m/s 747 mmHg 89%
    08:00 +6°C° 0.3 mm 2 m/s 747 mmHg 88%
    09:00 +7°C° 0.1 mm 2 m/s 747 mmHg 80%
    10:00 +8°C° 0.1 mm 2 m/s 747 mmHg 71%
    11:00 +9°C° 0.1 mm 2 m/s 747 mmHg 62%
    12:00 +10°C° 0.1 mm 2 m/s 746 mmHg 57%
    13:00 +10°C° 0.1 mm 2 m/s 746 mmHg 52%
    14:00 +12°C° 0.1 mm 2 m/s 746 mmHg 46%
    15:00 +10°C° 0.1 mm 2 m/s 746 mmHg 47%
    16:00 +10°C° 0.1 mm 3 m/s 746 mmHg 48%
    17:00 +10°C° 0.1 mm 3 m/s 746 mmHg 48%
    18:00 +8°C° 0 mm 2 m/s 746 mmHg 56%
    19:00 +7°C° 0 mm 2 m/s 746 mmHg 64%
    20:00 +5°C° 0 mm 2 m/s 746 mmHg 72%
    21:00 +5°C° 0 mm 2 m/s 747 mmHg 75%
    22:00 +4°C° 0 mm 2 m/s 747 mmHg 78%
    23:00 +4°C° 0 mm 2 m/s 747 mmHg 81%

    Depois de amanhã, 21 Abril, Domingo

    Tempo Temperatura Precipitação Vento Pressão Humidade
    00:00 +3°C° 0 mm 2 m/s 747 mmHg 83%
    01:00 +3°C° 0 mm 2 m/s 747 mmHg 85%
    02:00 +2°C° 0 mm 2 m/s 747 mmHg 87%
    03:00 +2°C° 0 mm 2 m/s 747 mmHg 89%
    04:00 +2°C° 0 mm 2 m/s 748 mmHg 90%
    05:00 +2°C° 0 mm 2 m/s 748 mmHg 92%
    06:00 +4°C° 0 mm 2 m/s 748 mmHg 85%
    07:00 +6°C° 0 mm 2 m/s 748 mmHg 78%
    08:00 +8°C° 0 mm 3 m/s 749 mmHg 71%
    09:00 +9°C° 0 mm 3 m/s 749 mmHg 66%
    10:00 +12°C° 0 mm 2 m/s 749 mmHg 60%
    11:00 +13°C° 0 mm 2 m/s 749 mmHg 55%
    12:00 +14°C° 0.1 mm 2 m/s 749 mmHg 53%
    13:00 +15°C° 0.1 mm 2 m/s 749 mmHg 51%
    14:00 +15°C° 0.1 mm 2 m/s 749 mmHg 49%
    15:00 +15°C° 0.1 mm 2 m/s 749 mmHg 50%
    16:00 +15°C° 0.1 mm 1 m/s 749 mmHg 51%
    17:00 +15°C° 0.1 mm 1 m/s 749 mmHg 52%
    18:00 +13°C° 0.1 mm 1 m/s 749 mmHg 58%
    19:00 +12°C° 0.1 mm 1 m/s 749 mmHg 65%
    20:00 +10°C° 0.1 mm 1 m/s 749 mmHg 71%
    21:00 +9°C° 0 mm 1 m/s 750 mmHg 75%
    22:00 +9°C° 0 mm 1 m/s 750 mmHg 78%
    23:00 +8°C° 0 mm 1 m/s 750 mmHg 81%

    22 Abril, Segunda-feira

    Tempo Temperatura Precipitação Vento Pressão Humidade
    00:00 +7°C° 0 mm 1 m/s 750 mmHg 83%
    01:00 +7°C° 0 mm 1 m/s 750 mmHg 85%
    02:00 +7°C° 0 mm 1 m/s 750 mmHg 86%
    03:00 +6°C° 0 mm 1 m/s 751 mmHg 86%
    04:00 +6°C° 0 mm 1 m/s 751 mmHg 86%
    05:00 +6°C° 0 mm 1 m/s 751 mmHg 86%
    06:00 +8°C° 0 mm 1 m/s 751 mmHg 78%
    07:00 +9°C° 0 mm 1 m/s 751 mmHg 69%
    08:00 +10°C° 0 mm 2 m/s 752 mmHg 61%
    09:00 +13°C° 0 mm 2 m/s 751 mmHg 56%
    10:00 +14°C° 0 mm 2 m/s 751 mmHg 51%
    11:00 +16°C° 0 mm 2 m/s 751 mmHg 45%
    12:00 +16°C° 0 mm 2 m/s 751 mmHg 44%
    13:00 +16°C° 0 mm 2 m/s 751 mmHg 42%
    14:00 +17°C° 0 mm 2 m/s 751 mmHg 41%
    15:00 +16°C° 0 mm 2 m/s 750 mmHg 43%
    16:00 +16°C° 0 mm 2 m/s 750 mmHg 45%
    17:00 +15°C° 0 mm 1 m/s 750 mmHg 47%
    18:00 +14°C° 0 mm 1 m/s 750 mmHg 52%
    19:00 +12°C° 0 mm 1 m/s 750 mmHg 56%
    20:00 +11°C° 0 mm 1 m/s 750 mmHg 61%
    21:00 +10°C° 0 mm 1 m/s 750 mmHg 62%
    22:00 +9°C° 0 mm 1 m/s 751 mmHg 64%
    23:00 +9°C° 0 mm 1 m/s 751 mmHg 65%

    23 Abril, Terça-feira

    Tempo Temperatura Precipitação Vento Pressão Humidade
    00:00 +8°C° 0 mm 1 m/s 751 mmHg 66%
    01:00 +8°C° 0 mm 1 m/s 751 mmHg 67%
    02:00 +7°C° 0 mm 1 m/s 751 mmHg 68%
    03:00 +7°C° 0 mm 1 m/s 751 mmHg 70%
    04:00 +7°C° 0 mm 1 m/s 751 mmHg 71%
    05:00 +6°C° 0 mm 1 m/s 752 mmHg 72%
    06:00 +8°C° 0 mm 1 m/s 752 mmHg 66%
    07:00 +11°C° 0 mm 1 m/s 752 mmHg 59%
    08:00 +13°C° 0 mm 1 m/s 752 mmHg 52%
    09:00 +14°C° 0 mm 1 m/s 752 mmHg 47%
    10:00 +15°C° 0 mm 2 m/s 752 mmHg 42%
    11:00 +17°C° 0 mm 2 m/s 752 mmHg 36%
    12:00 +17°C° 0 mm 2 m/s 752 mmHg 36%
    13:00 +18°C° 0 mm 2 m/s 752 mmHg 35%
    14:00 +18°C° 0 mm 2 m/s 751 mmHg 35%
    15:00 +18°C° 0 mm 2 m/s 751 mmHg 36%
    16:00 +17°C° 0 mm 2 m/s 751 mmHg 37%
    17:00 +17°C° 0 mm 2 m/s 750 mmHg 37%
    18:00 +15°C° 0 mm 1 m/s 751 mmHg 44%
    19:00 +13°C° 0 mm 1 m/s 751 mmHg 50%
    20:00 +11°C° 0 mm 1 m/s 751 mmHg 56%
    21:00 +11°C° 0 mm 1 m/s 751 mmHg 58%
    22:00 +10°C° 0 mm 1 m/s 751 mmHg 60%
    23:00 +9°C° 0 mm 1 m/s 751 mmHg 62%

    24 Abril, Quarta-feira

    Tempo Temperatura Precipitação Vento Pressão Humidade
    00:00 +9°C° 0 mm 1 m/s 752 mmHg 65%
    01:00 +8°C° 0 mm 1 m/s 752 mmHg 68%
    02:00 +8°C° 0 mm 1 m/s 752 mmHg 71%
    03:00 +8°C° 0 mm 1 m/s 752 mmHg 72%
    04:00 +8°C° 0 mm 1 m/s 752 mmHg 73%
    05:00 +7°C° 0 mm 1 m/s 752 mmHg 75%
    06:00 +10°C° 0 mm 1 m/s 753 mmHg 67%
    07:00 +12°C° 0 mm 1 m/s 753 mmHg 59%
    08:00 +14°C° 0 mm 1 m/s 753 mmHg 51%
    09:00 +16°C° 0 mm 1 m/s 753 mmHg 47%
    10:00 +18°C° 0 mm 1 m/s 753 mmHg 43%
    11:00 +19°C° 0 mm 1 m/s 753 mmHg 38%
    12:00 +19°C° 0 mm 1 m/s 752 mmHg 40%
    13:00 +18°C° 0 mm 1 m/s 752 mmHg 41%
    14:00 +18°C° 0 mm 1 m/s 752 mmHg 43%
    15:00 +18°C° 0 mm 1 m/s 751 mmHg 43%
    16:00 +17°C° 0 mm 2 m/s 751 mmHg 43%
    17:00 +17°C° 0 mm 2 m/s 751 mmHg 43%
    18:00 +15°C° 0 mm 1 m/s 751 mmHg 50%
    19:00 +13°C° 0 mm 1 m/s 751 mmHg 56%
    20:00 +11°C° 0 mm 1 m/s 751 mmHg 63%
    21:00 +11°C° 0 mm 1 m/s 751 mmHg 65%
    22:00 +10°C° 0 mm 1 m/s 751 mmHg 68%
    23:00 +10°C° 0 mm 1 m/s 751 mmHg 70%
    Mostrar mais